Hilton Head Island, SC

9:23 PM EST on February 19, 2018 (GMT -0500)
Hilton Head

Weather History for KHXD - October, 2012

Change the Weather History Date:

Wednesday, October 3, 2012

  Actual Average Record
Temperature  
Mean Temperature 76 °F -  
Max Temperature 80 °F 80 °F 104 °F (2017)
Min Temperature 73 °F 61 °F 46 °F (1974)
Cooling Degree Days 12    
Growing Degree Days 26 (Base 50)    
Moisture  
Dew Point 73 °F    
Average Humidity 88    
Maximum Humidity 100    
Minimum Humidity 69    
Precipitation  
Precipitation 0.11 in - - ()
Sea Level Pressure  
Sea Level Pressure 30.10 in    
Wind  
Wind Speed 5 mph (SW)    
Max Wind Speed 13 mph    
Max Gust Speed 17 mph    
Visibility 9 miles    
Events Rain    
Averages and records for this station are not official NWS values.
T = Trace of Precipitation, MM = Missing Value Source: NWS Daily Summary

Daily Weather History Graph

Daily Weather History Graph

Search for Another Location

Airport or City:

Trip Planner

Search our weather history database for the weather conditions in past years. The results will help you decide how hot, cold, wet, or windy it might be!

Date:

Astronomy

Oct. 03, 2012 Rise Set
Actual Time 7:18 AM EDT 7:04 PM EDT
Civil Twilight 6:53 AM EDT 7:28 PM EDT
Nautical Twilight 6:25 AM EDT 7:57 PM EDT
Astronomical Twilight 5:57 AM EDT 8:25 PM EDT
Moon 9:09 PM EDT (10/3) 10:26 AM EDT (10/3)
Length of Visible Light 12h 34m
Length of Day
11h 45m
Waning Gibbous, 89% of the Moon is Illuminated
Oct 3
Waning Gibbous
Oct 8
Last Quarter
Oct 15
New
Oct 21
First Quarter
Oct 29
Full

Hourly Weather History & Observations

Time (EDT) Temp. Heat Index Dew Point Humidity Pressure Visibility Wind Dir Wind Speed Gust Speed Precip Events Conditions
12:15 AM 80.6 °F 88.1 °F 78.8 °F 94% 30.01 in 10.0 mi South 5.8 mph - 0.00 in   Scattered Clouds
12:35 AM 80.6 °F 88.1 °F 78.8 °F 94% 30.01 in 9.0 mi South 5.8 mph - 0.00 in   Overcast
12:55 AM 80.6 °F 88.1 °F 78.8 °F 94% 30.01 in 9.0 mi South 5.8 mph - 0.00 in   Mostly Cloudy
1:15 AM 80.6 °F 88.1 °F 78.8 °F 94% 30.01 in 10.0 mi South 8.1 mph - 0.00 in   Mostly Cloudy
1:35 AM 80.6 °F 88.1 °F 78.8 °F 94% 30.01 in 9.0 mi South 8.1 mph - 0.00 in   Mostly Cloudy
1:55 AM 80.6 °F 88.1 °F 78.8 °F 94% 30.01 in 9.0 mi South 5.8 mph - 0.00 in   Partly Cloudy
2:15 AM 80.6 °F 88.1 °F 78.8 °F 94% 30.01 in 9.0 mi South 8.1 mph - 0.00 in   Partly Cloudy
2:35 AM 78.8 °F - 75.2 °F 89% 30.01 in 10.0 mi SW 12.7 mph 17.3 mph 0.00 in   Partly Cloudy
2:55 AM 78.8 °F - 73.4 °F 83% 30.02 in 10.0 mi SSW 6.9 mph - 0.00 in   Light Drizzle
3:15 AM 77.0 °F - 73.4 °F 89% 30.02 in 10.0 mi SW 5.8 mph - 0.00 in   Light Drizzle
3:35 AM 75.2 °F - 73.4 °F 94% 30.02 in 10.0 mi SW 6.9 mph - 0.00 in   Light Drizzle
3:55 AM 75.2 °F - 71.6 °F 89% 30.03 in 10.0 mi SW 6.9 mph - 0.00 in   Clear
4:15 AM 75.2 °F - 71.6 °F 89% 30.03 in 10.0 mi SW 5.8 mph - 0.00 in   Clear
4:35 AM 75.2 °F - 69.8 °F 83% 30.03 in 10.0 mi SW 5.8 mph - 0.00 in   Clear
4:55 AM 75.2 °F - 71.6 °F 89% 30.04 in 10.0 mi SW 3.5 mph - 0.00 in   Clear
5:15 AM 75.2 °F - 71.6 °F 89% 30.04 in 10.0 mi SW 4.6 mph - 0.00 in   Clear
5:35 AM 75.2 °F - 71.6 °F 89% 30.05 in 10.0 mi SW 3.5 mph - 0.00 in   Clear
5:55 AM 75.2 °F - 69.8 °F 83% 30.05 in 10.0 mi SW 4.6 mph - 0.00 in   Clear
6:15 AM 73.4 °F - 69.8 °F 88% 30.06 in 10.0 mi SW 3.5 mph - 0.00 in   Clear
6:35 AM 73.4 °F - 71.6 °F 94% 30.07 in 10.0 mi Calm Calm - 0.00 in   Clear
6:50 AM 73.4 °F - 68.0 °F 83% 30.07 in 10.0 mi Calm Calm - N/A   Mostly Cloudy
7:50 AM 75.2 °F - 68.0 °F 78% 30.10 in 10.0 mi Calm Calm - N/A   Mostly Cloudy
9:50 AM 75.2 °F - 68.0 °F 78% 30.14 in 10.0 mi South 6.9 mph - N/A   Overcast
11:55 AM 77.0 °F - 68.0 °F 74% 30.15 in 10.0 mi SW 6.9 mph - N/A   Mostly Cloudy
12:50 PM 78.8 °F - 68.0 °F 69% 30.14 in 10.0 mi SSW 6.9 mph - N/A   Scattered Clouds
1:55 PM 78.8 °F - 68.0 °F 69% 30.13 in 10.0 mi WSW 4.6 mph - N/A   Partly Cloudy
2:50 PM 80.6 °F 83.9 °F 69.8 °F 70% 30.12 in 8.0 mi Calm Calm - N/A   Partly Cloudy
3:55 PM 80.6 °F 84.6 °F 71.6 °F 74% 30.12 in 10.0 mi Calm Calm - N/A   Scattered Clouds
4:50 PM 80.6 °F 85.4 °F 73.4 °F 79% 30.13 in 10.0 mi Calm Calm - N/A   Partly Cloudy
5:50 PM 78.8 °F - 73.4 °F 83% 30.14 in 10.0 mi Calm Calm - N/A   Scattered Clouds
6:50 PM 75.2 °F - 73.4 °F 94% 30.15 in 10.0 mi Calm Calm - N/A   Partly Cloudy
7:50 PM 77.0 °F - 71.6 °F 83% 30.16 in 10.0 mi Calm Calm - N/A   Partly Cloudy
9:15 PM 75.2 °F - 71.6 °F 89% 30.18 in 10.0 mi Calm Calm - 0.00 in   Mostly Cloudy
9:35 PM 75.2 °F - 71.6 °F 89% 30.20 in 9.0 mi Calm Calm - 0.00 in Rain Light Rain
9:55 PM 73.4 °F - 73.4 °F 100% 30.20 in 5.0 mi Calm Calm - 0.03 in Rain Light Rain
10:15 PM 73.4 °F - 73.4 °F 100% 30.21 in 3.0 mi Calm Calm - 0.01 in   Light Drizzle
10:35 PM 73.4 °F - 73.4 °F 100% 30.21 in 3.0 mi Calm Calm - 0.03 in Rain Rain
10:55 PM 73.4 °F - 73.4 °F 100% 30.21 in 5.0 mi WNW 3.5 mph - 0.08 in Rain Rain
11:15 PM 73.4 °F - 73.4 °F 100% 30.21 in 8.0 mi Calm Calm - 0.00 in   Mostly Cloudy
11:35 PM 73.4 °F - 73.4 °F 100% 30.22 in 9.0 mi Calm Calm - 0.00 in   Overcast
11:55 PM 73.4 °F - 73.4 °F 100% 30.21 in 9.0 mi NNW 3.5 mph - 0.00 in   Mostly Cloudy